Flag for Uruguay Weather past 2 weeks in Maldonado, Uruguay

Now
70 °F

Thunderstorms. More clouds than sun.


Feels Like: 70 °F
Forecast: 68 / 76 °F
Wind: 21 mph from South

Location: Capitan Corbeta

Current Time: Jan 28, 2015 at 10:51:59 AM

Latest Report: Jan 28, 2015 at 10:00 AM


Visibility: 2 mi

Pressure: 29.77 "Hg

Humidity: 88%

Dew point: 66 °F

Location of MaldonadoLocation

Historic Weather in Maldonado — Graph

°F

Maldonado temperature yesterday

Maximum temperature yesterday: 95 °F (at 2:00 PM)
Minimum temperature yesterday: 70 °F (at 11:00 PM)
Average temperature yesterday: 78 °F

Past Weeks' High & Low Weather Summary

 TemperatureHumidityPressure
High95 °F (Jan 27, 2:00 PM)94% (Jan 13, 11:00 AM)30.24 "Hg (Jan 13, 11:00 AM)
Low54 °F (Jan 21, 6:00 AM)39% (Jan 18, 4:00 PM)29.65 "Hg (Jan 13, 7:00 PM)
Average72 °F72%29.94 "Hg
* Reported Jan 13 8:00 AM — Jan 28 8:00 AM, Maldonado, Weather by CustomWeather, © 2014

Note: Actual official high and low records may vary slightly from our data, if they occured in-between our weather recording intervals... More about our weather records

Advertising

Maldonado weather history for previous 24 hours

 ConditionsComfort  
Time TempWeatherWind HumidityBarometerVisibility
8:00 AM
Jan 28
73 °FThunderstorms. Broken clouds.16 mph89%29.74 "Hg4 mi
7:00 AM72 °FPartly sunny.7 mph83%29.77 "HgN/A
6:00 AM70 °FClear.No wind83%29.71 "Hg10 mi
3:00 AM72 °FClear.6 mph83%29.74 "Hg10 mi
2:00 AM70 °FPassing clouds.No wind88%29.74 "HgN/A
1:00 AM70 °FPartly cloudy.No wind94%29.77 "HgN/A
12:00 AM72 °FPartly cloudy.7 mph88%29.77 "HgN/A
11:00 PM
Jan 27
70 °FPartly cloudy.5 mph88%29.77 "HgN/A
10:00 PM72 °FPartly cloudy.3 mph88%29.74 "HgN/A
9:00 PM72 °FPassing clouds.No wind83%29.74 "HgN/A
8:00 PM73 °FScattered clouds.2 mph83%29.74 "HgN/A
7:00 PM73 °FPartly sunny.6 mph94%29.74 "HgN/A
6:00 PM73 °FLight rain. Overcast.6 mph89%29.77 "Hg6 mi
5:00 PM75 °FThunderstorms. Overcast.7 mph74%29.77 "Hg5 mi
4:00 PM77 °FThunderstorms. Overcast.17 mph65%29.74 "Hg3 mi
3:00 PM88 °FRain. Broken clouds.8 mph62%29.71 "HgN/A
2:00 PM95 °FScattered clouds.N/A39%29.74 "HgN/A
1:00 PM93 °FScattered clouds.10 mph47%29.74 "HgN/A
12:00 PM90 °FPartly sunny.12 mph46%29.77 "HgN/A
11:00 AM88 °FSunny.10 mph55%29.77 "Hg10 mi
10:00 AM81 °FSunny.8 mph54%29.77 "Hg10 mi
Weather by CustomWeather, © 2014

See weather overviewHow to use our weather pages